Location: Bern�tre
(50.1974°N, 2.0915°E)
Time: 22:48:57
(UTC+00:00)

NOSS 3-4 (A) - Pass Details

Date: 18 September 2020
Orbit: 885 x 1327 km, 63.4° (Epoch: 30 October)

Event Time Altitude Azimuth Distance (km) Brightness Sun altitude
Exits shadow 22:41:31 43° 359° (N) 1,323 4.4 -36.6°
Drops below altitude 10° 22:46:38 10° 40° (NE) 2,820 6.2 -36.9°
Sets 22:49:30 0° 46° (NE) 3,843 6.9 -37.0°
